Location: York
(31.8935°S, 116.7682°E)
Time: 22:39:42
(UTC+08:00)

Envisat - Pass Details

Date: 22 May 2021
Orbit: 764 x 766 km, 98.1° (Epoch: 13 June)

Event Time Altitude Azimuth Distance (km) Brightness Sun altitude
Rises 05:23:53 0° 358° (N) 3,215 6.4 -20.0°
Reaches altitude 10° 05:26:15 10° 352° (N) 2,297 5.5 -19.5°
Maximum altitude 05:31:05 45° 279° (W) 1,045 3.3 -18.5°
Enters shadow 05:33:46 25° 220° (SW) 1,544 4.1 -17.9°
